Weather in Malyagurt

Russia / Udmurt Republic     57°32′10″N   52°32′44″E
temp.,
°C
wind,
m/s
gust,
m/s
humid.,
%
clouds,
%
prec.,
mm/h
press.,
hPa
HPBL,
m
21 april, wed
wed2101:00+1se22590 0.0 103123
04:000ese23605 0.0 103152
07:00+3se395242 0.0 1031259
10:00+8sse51036100 0.0 1030924
13:00+10sse6103299 0.0 10281213
16:00+10sse51239100 0.0 10271330
19:00+8sse51344100 0.0 10251240
22:00+7s51349100 0.0 10251073
22 april, thu
thu2201:00+4s61582100 0.4 10251014
04:00+3sse61496100 1.8 1024768
07:00+2s51496100 0.9 1024754
10:00+4s51296100 1.1 1025687
13:00+5s4993100 0.0 1026629
16:00+4sse51093100 0.0 1026597
19:00+4sse41195100 0.0 1027592
22:00+4sse41097100 0.0 1027511
23 april, fri
fri2301:00+4sse4995100 0.1 1026329
04:00+3sse3896100 0.1 1027361
07:00+3sse3795100 0.4 1027333
10:00+4s2795100 2.0 1028366
13:00+5s2691100 0.1 1028394
16:00+8sse248084 0.1 1027655
19:00+7se2381100 0.0 102767
22:00+6se2792100 0.1 1027241
24 april, sat
sat2401:00+5ese2694100 0.0 1026240
04:00+4e3992100 0.0 1025345
07:00+5e4883100 0.0 1023661
10:00+7e4674100 0.0 1021819
13:00+6e3787100 0.3 1019689
16:00+5ene3794100 1.5 1017451
19:00+5e2697100 0.9 1016325
22:00+5e2797100 1.4 1014339
25 april, sun
sun2501:00+5ene2599100 2.2 1012234
04:00+5se2699100 3.1 1011292
07:00+5se3896100 0.4 1010458
10:00+6se369273 0.6 1008474
13:00+7sse3686100 0.4 1007665
16:00+3wsw51397100 4.1 1009704
19:00+5ssw278821 0.3 1011440
22:00+2ssw28895 0.3 1011147